STARLINK-36903

Last updated on Mon Mar 30 2026 00:02:05 GMT+0000 (Coordinated Universal Time)

1 68001U 26039R 26088.16668981 .00047486 00000+0 16827-2 0 9998 2 68001 42.9997 299.4004 0001332 276.5360 197.8140 15.28375257 6004
UTC large
Height (km)
Speed (km/s)
/
Latitude / Longitude
Inclination (degrees)
Orbital Period (minutes)
Azimuth
Elevation
Range (km)
Doppler Factor

Next 0 passes for location: London (51.5072 / 0.1276)

Sorry there are no passes over London.